Location: ???? ?????????
(31.1304°N, 31.7111°E)
Time: 01:45:25
(UTC+00:00)

Cosmos 2278 - Pass Details

Date: 29 October 2020
Orbit: 842 x 851 km, 71.1° (Epoch: 25 November)

Event Time Altitude Azimuth Distance (km) Brightness Sun altitude
Rises 16:16:15 0° 193° (SSW) 3,396 7.1 -15.4°
Reaches altitude 10° 16:18:42 10° 191° (S) 2,463 6.3 -15.9°
Maximum altitude 16:24:19 72° 108° (ESE) 889 3.6 -17.1°
Drops below altitude 10° 16:29:58 10° 24° (NNE) 2,470 5.8 -18.3°
Enters shadow 16:30:45 - 24° (NNE) 2,767 6.1 -18.5°
